Regional Weather Roundup
Issued by NWS Jackson, KY

Home | Current Version | Previous Version | Graphics & Text | Print | Product List | Glossary On
Versions: 1 2 3 4 5 6 7 8 9 10 11 12 13 14 15 16 17 18 19 20 21 22 23 24 25 26 27 28 29 30 31 32 33 34 35 36 37 38 39 40 41 42 43 44 45 46 47 48 49 50
000
ASUS43 KJKL 011410
RWRJKL

EAST KENTUCKY HOURLY WEATHER ROUNDUP
NATIONAL WEATHER SERVICE JACKSON KY
1000 AM EDT SAT OCT 01 2016

NOTE: "FAIR" INDICATES FEW OR NO CLOUDS BELOW 12,000 FEET WITH
NO SIGNIFICANT WEATHER AND/OR OBSTRUCTIONS TO VISIBILITY.

* THESE REPORTS ARE NOT UNDER NWS QUALITY CONTROL AND MAY NOT
  REPORT WEATHER SUCH AS PRECIPITATION AND FOG.

KYZ079-080-083-085-087-088-110-112-115-119-120-011500
...EASTERN KENTUCKY...

CITY           SKY/WX    TMP DP  RH WIND       PRES   REMARKS
JACKSON        MOSUNNY   57  52  83 S3        30.10R
LONDON         CLOUDY    56  50  80 S5        30.10R
SOMERSET*      CLOUDY    55  54  94 S5        30.11R
MONTICELLO*    CLOUDY    58  54  86 NE7       30.11R
WILLIAMSBURG*  CLOUDY    54  54 100 SE7       30.11R
MIDDLESBORO*   CLOUDY    50  50 100 CALM      30.14S
HARLAN APT*    CLOUDY    50  50 100 NE3       30.13S
PIKE CO APT*   FOG       55  55 100 CALM      30.11S VSB 1/2
BIG SANDY APT* CLOUDY    56  56 100 SE5       30.11S
MOREHEAD APT*  MOSUNNY   57  54  88 VRB5      30.10S
ASHLAND*       CLOUDY    57  55  94 CALM      30.08R
$$

KYZ035-036-041-042-044-050-067-078-099-011500
...CENTRAL KENTUCKY...

CITY           SKY/WX    TMP DP  RH WIND       PRES   REMARKS
MT STERLING*   CLOUDY    55  54  94 SW6       30.09S
FLEMING/MASON* CLOUDY    57  53  86 S5        30.08S
DANVILLE*      CLOUDY    55  54  94 S3        30.09R
LEXINGTON      CLOUDY    59  54  83 S10       30.07R
FRANKFORT      CLOUDY    59  55  87 S8        30.05S
LOUISVILLE     CLOUDY    59  56  89 SE5       30.04S FOG
LEBANON*       CLOUDY    57  57 100 S6        30.07S FOG
GLASGOW*       CLOUDY    60  60 100 SW6       30.07R
BOWLING GREEN  LGT RAIN  62  59  90 SW9       30.06R FOG
$$

KYZ091>093-OHZ055-061-077-WVZ005-015-034-035-042-011500
...SOUTHERN OHIO/WEST VIRGINIA...

CITY           SKY/WX    TMP DP  RH WIND       PRES   REMARKS
COVINGTON      PTSUNNY   57  55  94 S9        30.06R
COLUMBUS       PTSUNNY   60  57  89 SE6       30.07S
DAYTON         PTSUNNY   57  53  86 S9        30.06S
WILMINGTON     SUNNY     57  54  89 S9        30.06S
HUNTINGTON     MOSUNNY   59  56  89 SW6       30.09R
CHARLESTON     FOG       57  56  96 CALM      30.10R VSB 1/2
PINEVILLE*     CLOUDY    57  54  88 MISG      30.18R
BECKLEY        MOSUNNY   60  55  83 CALM      30.14R
BLUEFIELD      CLOUDY    54  54 100 CALM      30.15R FOG
LOGAN CO APT*  CLOUDY    57  57 100 CALM      30.11S
$$

VAZ002-007-008-TNZ017-027-036-066-071-011500
...SOUTHWEST VIRGINIA/EAST TENNESSEE...

CITY           SKY/WX    TMP DP  RH WIND       PRES   REMARKS
WISE*          SUNNY     59  45  58 S6        30.15R
JONESVILLE*      N/A     55  52  88 CALM      30.15S
ABINGDON*      CLOUDY    55  55 100 E5        30.14F FOG
BRISTOL        PTSUNNY   53  52  96 CALM      30.14S
MORRISTOWN*    SUNNY     59  50  72 CALM      30.12R
SEVIERVILLE*   SUNNY     59  48  67 CALM      30.12R
KNOXVILLE      MOSUNNY   58  48  69 CALM      30.11S
OAK RIDGE      CLOUDY    57  51  80 CALM      30.14R
CROSSVILLE     CLOUDY    57  52  83 VRB3      30.13R
NASHVILLE      MOSUNNY   63  58  83 CALM      30.09R
$$

...KEY TO REMARKS...
VSB - VISIBILITY IN MILES
WCI - WIND CHILL INDEX
HX  - HEAT INDEX

$$



USA.gov is the U.S. government's official web portal to all federal, state and local government web resources and services.